Theta_e
333 341 346 345 344 344 344 345 346 348 349 348 347 344 343 342 340 341 343 343 343 340 340 341 342 340 340 341 342 342 341 342 342 341 342 341 342 340 341 341 341 338 341
337 341 343 345 343 343 344 345 346 346 348 349 347 344 343 341 340 339 341 341 341 339 338 338 339 338 339 339 339 338 338 341 341 341 342 344 343 341 340 340 341 338 339
338 341 343 344 346 345 345 345 346 346 347 348 347 345 343 340 338 339 339 341 340 339 340 337 336 336 336 336 337 339 340 339 338 337 339 339 338 339 339 338 337 338 338
339 342 343 344 346 345 344 344 344 345 346 348 347 344 343 338 338 338 339 341 340 340 340 337 337 335 337 337 340 339 338 336 335 335 334 335 335 338 338 336 337 337 335
339 342 343 344 346 342 342 342 342 344 345 347 345 343 341 337 336 337 339 339 339 340 339 339 336 336 335 338 338 337 336 335 333 331 331 332 333 334 334 332 332 333 332
339 342 343 344 345 342 343 340 340 340 343 345 343 341 337 336 336 336 339 338 338 337 340 338 337 337 337 336 335 335 335 332 330 329 330 331 331 333 332 330 329 329 329
338 340 344 343 343 343 342 340 340 340 341 343 342 339 336 336 335 335 337 337 334 336 338 339 337 338 336 335 334 334 331 328 327 328 328 329 330 332 331 329 328 327 327
337 339 343 337 339 341 341 341 341 342 341 342 341 336 335 335 334 334 335 334 332 338 339 338 336 335 335 334 333 331 328 326 325 327 327 327 329 330 329 326 326 325 325
338 339 342 342 338 335 338 338 339 340 340 340 340 338 336 336 335 334 335 334 332 334 337 335 335 334 333 333 332 329 326 325 325 325 324 326 328 328 327 326 324 324 323
336 338 340 340 340 340 339 332 333 336 337 337 336 333 331 332 332 331 330 334 332 334 336 335 333 333 332 332 330 328 326 324 324 323 325 325 326 326 326 323 323 322 322
333 336 338 339 338 338 338 332 330 331 332 331 330 326 325 330 329 328 327 331 333 334 334 333 331 329 329 328 327 325 324 324 323 323 324 326 323 324 324 323 323 320 321
329 332 335 337 337 337 336 334 335 332 334 332 330 328 326 326 326 326 325 327 329 327 331 330 328 324 321 325 325 322 324 323 322 322 323 327 323 322 320 322 321 319 320
330 331 333 334 337 336 336 334 334 332 331 330 328 326 324 322 325 326 328 328 328 322 326 326 324 321 320 321 322 322 322 322 321 321 323 325 323 321 320 319 319 319 317
329 331 332 333 334 336 336 334 333 331 329 327 326 325 322 321 322 324 325 326 325 325 324 322 319 318 318 318 320 321 320 319 320 320 322 322 323 322 320 319 317 317 317
329 331 332 333 333 335 335 335 333 331 329 327 325 324 322 320 321 322 323 324 323 321 320 317 317 316 316 315 316 318 319 320 321 320 321 318 322 322 320 319 318 317 316
330 331 332 332 333 333 334 334 333 333 331 327 325 324 322 321 320 321 321 321 321 320 316 316 315 315 315 313 313 313 315 316 316 318 321 321 321 323 321 321 320 320 317
328 331 332 332 332 332 333 333 333 333 331 328 326 324 322 321 319 319 320 319 320 318 315 314 312 311 310 310 310 308 307 310 310 313 317 318 321 320 322 321 320 319 319
325 326 330 331 331 331 331 332 332 332 332 330 327 325 323 321 320 319 318 318 317 316 314 310 309 309 308 307 307 307 305 305 308 307 308 313 315 318 320 322 321 319 319
323 325 326 330 330 330 331 331 331 331 331 331 330 326 323 322 320 319 318 317 316 315 313 310 307 307 305 304 304 303 303 302 303 302 305 307 310 313 316 318 319 319 319
319 322 325 327 329 330 331 330 330 330 330 330 330 328 325 322 321 320 320 318 316 314 312 310 308 305 305 304 301 298 298 300 301 302 303 302 303 307 307 309 315 316 316
312 317 321 323 327 329 328 327 327 326 328 329 329 329 327 325 322 320 320 317 315 314 312 311 307 302 300 300 298 300 296 299 295 296 297 299 303 303 305 306 308 309 313
301 310 315 320 324 327 329 329 329 329 329 329 329 329 329 326 324 322 321 319 316 315 313 310 307 300 302 299 300 296 298 301 298 299 297 296 298 303 301 299 299 301 305
296 296 305 313 319 324 328 325 320 323 322 327 327 328 328 328 327 324 323 321 317 317 314 312 308 305 302 297 299 301 291 295 297 297 297 298 299 300 302 301 298 300 299
298 299 298 302 311 317 323 324 324 324 323 326 327 328 328 329 328 326 325 323 320 317 316 313 311 309 309 299 297 298 298 297 296 296 291 292 297 297 297 301 297 298 298
298 299 301 304 307 311 317 322 322 323 325 324 323 326 327 327 328 328 326 324 322 319 318 315 311 309 309 307 300 298 298 297 291 291 299 301 289 290 294 298 298 298 296
297 298 300 301 301 309 314 316 318 319 319 317 316 317 322 325 326 326 325 325 324 322 319 318 315 311 310 309 306 305 300 296 296 293 293 299 299 297 289 291 295 295 299
Wind_Speed
7 9 11 10 11 11 11 11 12 11 13 16 17 15 16 16 16 15 14 15 15 19 17 17 18 17 17 18 19 21 20 19 17 18 17 19 21 21 22 21 19 18 22
12 9 10 10 10 11 11 10 11 10 11 16 17 16 16 16 16 15 14 15 16 16 19 18 19 18 18 18 18 18 18 18 16 16 15 19 20 21 22 20 20 19 22
12 11 10 10 10 11 10 9 9 9 12 16 17 18 18 15 14 14 14 14 13 15 17 18 18 18 18 19 18 16 18 18 19 18 15 14 15 21 21 20 19 20 21
13 9 9 11 13 12 12 11 10 10 12 16 17 17 19 14 14 13 14 14 14 14 17 17 16 16 16 14 16 19 18 18 17 16 13 14 14 20 22 20 21 21 21
12 9 9 12 13 13 13 12 10 11 12 16 17 16 17 13 13 13 13 15 13 13 17 16 16 15 14 16 18 19 18 17 17 14 13 11 10 16 19 18 18 19 19
11 10 12 14 15 14 13 13 13 12 12 14 15 14 15 13 13 12 11 13 13 9 15 16 15 12 17 18 17 17 17 15 13 12 12 13 11 18 17 16 17 18 17
10 8 9 11 13 13 12 13 12 12 12 13 13 11 13 12 12 12 11 11 12 9 14 15 12 13 16 17 16 16 14 12 11 11 11 10 11 17 16 16 16 16 17
12 10 9 9 10 11 11 11 11 11 10 10 11 13 12 12 12 11 10 10 9 12 16 15 15 14 15 16 16 15 13 11 10 10 11 9 14 15 15 13 15 15 15
9 9 8 9 9 8 9 9 10 9 9 9 10 12 10 10 11 11 9 10 10 10 14 13 13 13 13 14 15 15 13 11 11 8 9 7 12 14 13 14 13 14 14
6 6 8 7 8 7 7 8 9 9 10 9 11 10 8 9 10 9 6 9 9 9 14 13 12 11 12 13 14 13 11 10 10 9 8 6 11 13 12 11 12 12 13
6 7 7 7 6 6 6 6 8 8 9 9 9 9 8 5 7 7 5 7 8 9 13 11 10 10 11 10 11 9 8 6 8 6 6 11 9 10 12 11 11 8 12
12 11 8 8 8 7 5 6 6 6 6 6 6 7 5 6 5 5 5 7 7 9 8 9 9 8 6 5 5 7 4 6 4 6 6 13 9 8 8 11 9 8 11
11 10 9 8 7 8 6 5 3 3 4 4 7 6 5 4 4 4 3 3 3 5 3 6 5 3 5 5 5 5 5 5 3 2 7 12 9 5 6 7 8 8 7
13 12 10 9 8 8 6 5 5 5 4 4 5 7 6 4 5 5 4 4 4 3 5 4 3 4 4 4 5 6 6 4 3 2 4 9 9 8 5 5 5 6 6
12 10 9 9 8 7 7 6 6 6 5 6 6 7 6 6 6 5 5 4 4 4 4 4 3 3 3 3 3 4 5 5 7 4 4 11 10 9 8 6 6 6 7
13 15 12 10 9 9 8 8 6 6 7 6 6 7 9 6 6 6 6 6 5 5 5 5 6 5 4 4 4 4 4 4 4 6 5 6 12 11 11 11 10 11 9
11 14 16 11 11 10 11 8 6 6 6 7 7 9 10 9 9 8 6 6 6 5 6 4 3 2 3 3 5 4 3 4 4 5 6 5 7 11 11 14 13 13 13
10 13 13 11 11 12 10 9 7 7 6 7 7 8 10 10 10 8 7 6 5 6 5 4 4 4 3 3 3 5 4 5 6 6 5 6 7 7 11 15 15 15 14
11 11 12 13 16 15 12 9 9 8 7 7 7 7 10 11 11 9 7 6 7 6 6 6 4 3 3 3 3 3 3 4 5 4 9 9 8 7 7 11 15 15 18
9 10 11 11 13 13 10 8 7 6 7 7 7 7 10 9 12 10 7 7 7 6 6 6 6 5 3 4 3 2 3 5 5 7 8 5 6 10 8 8 9 11 18
7 10 12 13 13 10 9 9 9 9 8 7 6 10 12 11 12 12 8 7 8 9 10 9 6 6 6 6 3 4 4 9 8 7 6 7 10 10 10 9 7 5 8
3 6 7 11 10 11 9 9 7 8 8 8 7 8 11 12 12 12 12 10 11 8 10 11 10 3 4 9 4 2 3 3 10 12 9 9 11 10 10 9 8 9 8
5 3 5 6 6 9 9 3 2 1 1 4 6 7 9 12 13 14 13 12 11 11 10 12 12 13 8 6 8 5 2 8 0 3 13 11 14 11 11 12 10 11 8
7 5 4 1 4 4 6 7 9 10 10 9 8 6 7 11 12 13 13 13 13 10 12 11 11 11 10 9 4 10 7 0 4 3 4 7 10 13 13 11 10 12 12
8 8 6 7 5 1 4 5 6 8 5 2 2 7 7 8 11 11 12 12 13 10 12 13 12 14 11 9 9 4 11 7 3 3 11 7 4 9 10 12 10 11 11
8 10 10 10 9 7 4 0 3 4 3 2 2 4 5 5 5 9 10 11 11 10 12 12 14 15 14 13 10 11 9 6 9 10 11 14 11 5 8 9 12 11 12
Wind_Direction
175 165 163 140 124 115 114 113 113 107 107 113 104 100 92 87 86 86 83 83 79 87 81 79 76 75 74 69 69 75 76 71 78 81 81 84 85 82 77 70 71 68 69
153 157 133 133 125 122 114 104 99 102 98 117 113 102 89 85 87 91 91 87 87 83 89 86 85 83 82 83 79 74 72 69 66 68 79 85 83 78 78 71 70 72 72
150 152 153 145 130 117 105 97 97 103 108 116 113 104 91 87 90 96 91 88 87 96 92 87 89 89 91 93 96 88 77 73 66 61 64 79 81 81 76 72 75 77 78
152 149 156 133 128 123 112 103 101 97 95 114 106 98 97 93 98 102 98 91 86 100 94 89 92 93 91 85 93 88 82 74 71 64 68 70 76 75 78 75 71 74 75
147 151 140 132 130 128 124 120 117 108 97 105 103 99 97 100 105 109 107 92 85 94 98 100 97 104 101 90 85 81 82 78 69 70 70 63 73 76 76 74 74 74 76
151 148 142 142 138 139 135 131 125 117 113 107 108 108 110 108 110 112 103 104 92 95 103 99 111 113 100 96 91 84 81 79 77 77 73 70 74 86 85 85 86 82 81
150 144 142 139 141 140 141 136 128 123 117 110 112 113 110 115 116 114 107 103 100 109 107 114 112 103 103 100 98 99 95 87 89 84 85 81 85 88 89 87 86 85 81
153 150 150 141 143 145 142 134 127 126 121 126 127 119 120 122 120 118 120 111 104 96 107 102 98 91 93 101 109 102 96 87 89 88 88 81 87 91 92 97 94 96 95
149 150 151 153 152 147 141 136 129 128 126 126 122 120 125 125 125 125 128 114 117 123 110 105 103 102 101 107 108 108 103 94 98 93 91 91 97 97 96 92 98 94 93
148 152 156 153 155 158 147 142 134 132 127 119 113 115 116 110 105 111 103 122 121 126 108 113 110 111 113 114 118 112 105 97 107 106 97 90 92 94 95 96 93 101 97
166 167 166 164 164 161 153 149 134 131 128 117 119 118 107 122 121 120 124 125 129 117 113 119 115 120 107 113 112 101 106 120 121 115 115 105 105 107 107 102 102 96 104
182 182 181 176 176 167 163 156 154 146 145 140 142 137 133 131 129 131 118 117 130 138 129 130 119 116 116 127 123 107 118 130 116 124 123 121 119 115 112 117 116 123 112
183 185 184 181 178 178 175 165 162 158 151 149 150 146 141 135 139 134 127 127 124 130 133 106 136 138 130 135 135 134 133 120 100 104 135 124 122 119 126 125 139 129 128
179 189 193 190 181 178 177 182 177 170 167 166 169 158 155 154 158 158 157 156 146 145 139 143 151 140 140 142 147 150 152 144 144 130 150 126 146 147 148 153 148 139 143
191 190 186 184 193 186 177 178 180 189 187 178 174 176 171 171 173 169 172 170 165 159 157 157 160 157 149 151 158 170 174 167 165 165 170 151 165 178 166 190 166 171 175
195 200 187 183 190 195 189 181 183 186 188 186 187 189 187 181 181 185 179 182 180 179 173 177 180 176 177 183 186 190 204 195 213 186 188 179 165 187 199 187 197 185 194
203 199 201 187 185 197 202 184 183 183 181 185 199 196 193 192 191 188 189 190 192 188 183 182 183 190 186 189 201 212 215 219 218 228 203 205 189 191 206 202 202 206 202
191 195 196 195 193 198 199 197 190 185 188 190 186 193 199 201 194 191 198 201 179 180 182 172 172 186 214 223 215 212 209 215 217 238 267 213 195 203 204 212 208 214 215
202 195 195 194 199 199 202 200 195 196 195 197 190 188 197 201 199 198 201 198 178 179 185 180 193 181 186 199 206 225 239 251 240 240 224 229 236 230 214 216 204 207 212
205 197 199 196 200 197 200 201 204 203 209 204 194 193 189 196 200 204 209 197 183 184 192 192 191 187 193 187 195 231 244 253 244 246 250 266 246 220 226 232 219 212 208
209 208 202 198 200 186 192 196 209 209 206 210 198 193 194 195 198 201 209 197 188 196 206 200 187 184 201 167 132 236 250 243 232 233 237 241 242 241 238 232 234 234 225
219 215 208 214 195 197 203 210 212 210 216 213 206 201 200 199 197 201 205 205 202 206 206 197 194 184 204 179 172 48 263 248 233 228 217 225 228 231 231 226 234 231 221
27 294 224 217 199 202 199 149 97 74 45 195 213 212 208 203 203 204 208 207 203 211 214 205 200 201 208 205 204 160 163 225 306 199 231 225 225 222 229 230 226 228 235
13 21 42 250 217 205 190 188 205 223 228 227 227 218 211 207 210 210 211 210 209 208 213 211 210 210 215 203 214 240 251 179 197 292 231 241 227 229 228 223 219 225 219
25 29 35 55 54 15 204 213 202 224 239 231 234 233 220 208 215 214 215 213 214 212 216 210 209 215 212 211 210 170 228 224 253 231 273 237 232 235 237 237 224 228 216
19 33 39 50 40 31 49 39 219 243 258 252 240 240 238 237 221 224 220 222 222 218 217 217 215 210 214 221 216 221 203 188 207 212 241 260 256 226 225 217 228 223 223